Weather in Kraskino

Russia / Primorsky Krai     42°42′38″N   130°47′00″E
temp.,
°C
wind,
m/s
gust,
m/s
humid.,
%
clouds,
%
prec.,
mm/h
press.,
hPa
HPBL,
m
25 january, tue
tue2501:00−9nnw1178100 0.0 102418
04:00−10nnw228090 0.0 102425
07:00−10nw228074 0.0 102332
10:00−9nw22725 0.0 102381
13:00−5w22485 0.0 1022304
16:00−3w1244100 0.0 1020344
19:00−5wnw1165100 0.0 102013
22:00−6nnw1169100 0.0 102015
26 january, wed
wed2601:00−6nnw1171100 0.0 102019
04:00−7nw227864 0.0 102045
07:00−9nw34835 0.0 102185
10:00−9nw36735 0.0 1023172
13:00−5wnw69574 0.0 1022721
16:00−3wnw695019 0.0 10221296
19:00−5nw410608 0.0 1024549
22:00−8wnw410682 0.0 1026402
27 january, thu
thu2701:00−10wnw38742 0.0 1027308
04:00−11wnw37772 0.0 1027258
07:00−12nw37782 0.0 1028248
10:00−11nw37711 0.0 1028253
13:00−7wnw47521 0.0 1027654
16:00−5wnw57492 0.0 1025831
19:00−7wnw410601 0.0 1025324
22:00−9wnw36731 0.0 1026172
28 january, fri
fri2801:00−10wnw38752 0.0 1025276
04:00−11wnw49762 0.0 1025310
07:00−11wnw410762 0.0 1024386
10:00−10wnw513651 0.0 1024672
13:00−7wnw610515 0.0 1023942
16:00−4wnw712485 0.0 10211358
19:00−6wnw613562 0.0 1021910
22:00−8wnw714613 0.0 1021956
29 january, sat
sat2901:00−9wnw614632 0.0 1021927
04:00−10wnw514633 0.0 1021937
07:00−11wnw514621 0.0 1020903
10:00−10wnw512635 0.0 1021965
13:00−7wnw61249100 0.0 10201627
16:00−6wnw7134793 0.0 10181997
19:00−9wnw612513 0.0 10201233
22:00−11wnw611560 0.0 1022974